Regional Weather Roundup
Issued by NWS Charleston, WV

Home | Current Version | Previous Version | Text Only | Print | Product List | Glossary Off
Versions: 1 2 3 4 5 6 7 8 9 10 11 12 13 14 15 16 17 18 19 20 21 22 23 24 25 26 27 28 29 30 31 32 33 34 35 36 37 38 39 40 41 42 43 44 45 46 47 48 49 50

000
ASUS41 KRLX 100710
RWRRLX
West Virginia Regional Weather Roundup
National Weather Service Charleston WV
Issued by National Weather Service Pittsburgh PA
200 AM EST SAT DEC 10 2016

Note: "fair" indicates few or no clouds below 12,000 feet with no
significant weather and/or obstructions to visibility.

WVZ003-100800-
Northern Panhandle of West Virginia

CITY           SKY/WX    TMP DP  RH WIND       PRES   REMARKS
WHEELING       CLOUDY    23  18  81 W9        30.42S WCI  13
$$

WVZ009-100800-
Northwest West Virginia

CITY           SKY/WX    TMP DP  RH WIND       PRES   REMARKS
PARKERSBURG    CLOUDY    24  13  62 W6        30.52S WCI  17
$$

WVZ006-100800-
Western West Virginia

CITY           SKY/WX    TMP DP  RH WIND       PRES   REMARKS
HUNTINGTON     CLOUDY    24  12  60 S5        30.53R WCI  18
$$

WVZ015-100800-
West Central West Virginia

CITY           SKY/WX    TMP DP  RH WIND       PRES   REMARKS
CHARLESTON     CLOUDY    23  13  65 SW6       30.51R WCI  16
$$

WVZ031-100800-
North Central West Virginia

CITY           SKY/WX    TMP DP  RH WIND       PRES   REMARKS
CLARKSBURG     CLOUDY    23  16  74 W6        30.45S WCI  16
MORGANTOWN     CLOUDY    23  14  68 SW8       30.43S WCI  14
$$

WVZ035-042-100800-
South Central West Virginia

CITY           SKY/WX    TMP DP  RH WIND       PRES   REMARKS
BECKLEY        CLOUDY    17   9  70 W7        30.40R WCI   8
BLUEFIELD      CLOUDY    15   9  76 W6        30.38R WCI   6
$$

WVZ045-100800-
Greenbrier Valley of West Virginia

CITY           SKY/WX    TMP DP  RH WIND       PRES   REMARKS
LEWISBURG      CLOUDY    18  10  71 CALM      30.39F
$$

WVZ047-100800-
Northern Mountains of West Virginia

CITY           SKY/WX    TMP DP  RH WIND       PRES   REMARKS
ELKINS         FLURRIES  20  12  71 S5        30.40F WCI  13
$$

WVZ052-100800-
Eastern Panhandle of West Virginia

CITY           SKY/WX    TMP DP  RH WIND       PRES   REMARKS
MARTINSBURG    PTCLDY    29  15  56 W7        30.42R WCI  22
PETERSBURG     CLOUDY    28  15  57 SW5       30.46S WCI  23
$$




USA.gov is the U.S. government's official web portal to all federal, state and local government web resources and services.